Location: Beddau
(51.5575°N, 3.3561°W)
Time: 16:51:32
(UTC+00:00)

H-2A R/B - Pass Details

Date: 03 March 2021
Orbit: 577 x 654 km, 98.5° (Epoch: 12 April)

Event Time Altitude Azimuth Distance (km) Brightness Sun altitude
Rises 18:30:07 0° 11° (NNE) 2,812 5.3 -5.9°
Reaches altitude 10° 18:32:18 10° 7° (N) 1,905 4.5 -6.2°
Maximum altitude 18:36:19 55° 290° (WNW) 705 2.8 -6.8°
Drops below altitude 10° 18:40:19 10° 213° (SSW) 1,895 5.1 -7.4°
Sets 18:42:29 0° 209° (SSW) 2,795 5.9 -7.8°
